Flag for U.S.A. Weather past 2 weeks in Toledo, Ohio, U.S.A.

Now
68 °F

Sunny.


Feels Like: 68 °F
Forecast: 49 / 67 °F
Wind: 10 mph from Northwest

Location: Toledo Suburban Airport

Current Time: May 22, 2015 at 4:53:21 PM

Latest Report: May 22, 2015 at 4:15 PM


Visibility: 10 mi

Pressure: 30.21 "Hg

Humidity: 24%

Dew point: 30 °F

Location of ToledoLocation

Historic Weather in Toledo — Graph

°F

Toledo temperature yesterday

Maximum temperature yesterday: 63 °F (at 4:15 PM)
Minimum temperature yesterday: 46 °F (at 12:54 AM)
Average temperature yesterday: 54 °F

Past Weeks' High & Low Weather Summary

 TemperatureHumidityPressure
High88 °F (May 8, 2:15 PM)94% (May 8, 3:15 AM)30.47 "Hg (May 8, 3:15 AM)
Low37 °F (May 14, 4:35 AM)23% (May 22, 2:35 PM)29.79 "Hg (May 11, 6:15 PM)
Average62 °F69%30.09 "Hg
* Reported May 7 3:15 PM — May 22 3:55 PM, Toledo, Weather by CustomWeather, © 2015

Note: Actual official high and low records may vary slightly from our data, if they occured in-between our weather recording intervals... More about our weather records

Advertising

Toledo weather history for previous 24 hours

 ConditionsComfort  
Time TempWeatherWind HumidityBarometerVisibility
3:55 PM
Fri, May 22
68 °FSunny.7 mph24%30.21 "Hg10 mi
3:35 PM68 °FSunny.5 mph26%30.21 "Hg10 mi
3:15 PM68 °FSunny.12 mph24%30.21 "Hg10 mi
2:54 PM68 °FSunny.6 mph24%30.22 "Hg10 mi
2:35 PM68 °FSunny.7 mph23%30.21 "Hg10 mi
2:15 PM66 °FSunny.6 mph26%30.21 "Hg10 mi
1:54 PM66 °FSunny.9 mph26%30.20 "Hg10 mi
1:35 PM64 °FSunny.7 mph28%30.20 "Hg10 mi
1:15 PM64 °FSunny.7 mph28%30.20 "Hg10 mi
12:54 PM64 °FSunny.5 mph30%30.20 "Hg10 mi
12:35 PM64 °FSunny.7 mph28%30.20 "Hg10 mi
12:15 PM64 °FSunny.7 mph28%30.19 "Hg10 mi
11:55 AM63 °FSunny.9 mph27%30.19 "Hg10 mi
11:35 AM63 °FSunny.9 mph27%30.18 "Hg10 mi
11:15 AM63 °FSunny.7 mph27%30.18 "Hg10 mi
10:54 AM61 °FSunny.6 mph27%30.18 "Hg10 mi
10:35 AM61 °FSunny.7 mph27%30.17 "Hg10 mi
10:15 AM59 °FScattered clouds.9 mph31%30.17 "Hg10 mi
9:54 AM59 °FScattered clouds.8 mph31%30.16 "Hg10 mi
9:35 AM57 °FPartly sunny.6 mph33%30.16 "Hg10 mi
9:15 AM55 °FScattered clouds.8 mph41%30.15 "Hg10 mi
8:54 AM54 °FScattered clouds.6 mph44%30.14 "Hg10 mi
8:35 AM54 °FPartly sunny.6 mph44%30.13 "Hg10 mi
8:15 AM52 °FPartly sunny.5 mph50%30.13 "Hg10 mi
7:55 AM52 °FScattered clouds.7 mph54%30.13 "Hg10 mi
7:35 AM52 °FSunny.3 mph58%30.12 "Hg10 mi
7:15 AM52 °FSunny.No wind58%30.10 "Hg10 mi
6:54 AM50 °FPassing clouds.5 mph71%30.10 "Hg10 mi
6:35 AM52 °FLight rain. Mostly cloudy.6 mph72%30.08 "Hg10 mi
6:15 AM52 °FLight rain. Mostly cloudy.3 mph72%30.08 "Hg10 mi
5:55 AM50 °FLight rain. Overcast.5 mph76%30.08 "Hg10 mi
5:34 AM52 °FRain. Mostly cloudy.6 mph67%30.07 "Hg10 mi
5:15 AM54 °FMostly cloudy.3 mph54%30.07 "Hg10 mi
4:55 AM54 °FMostly cloudy.5 mph54%30.05 "Hg10 mi
4:35 AM54 °FOvercast.3 mph54%30.04 "Hg10 mi
4:15 AM54 °FOvercast.6 mph51%30.03 "Hg10 mi
3:54 AM54 °FOvercast.6 mph51%30.02 "Hg10 mi
3:35 AM54 °FOvercast.6 mph47%30.01 "Hg10 mi
3:15 AM54 °FOvercast.5 mph47%30.01 "Hg10 mi
2:54 AM55 °FOvercast.No wind44%30.02 "Hg10 mi
2:35 AM55 °FOvercast.6 mph44%30.02 "Hg10 mi
2:15 AM54 °FOvercast.3 mph51%30.02 "Hg10 mi
1:54 AM54 °FPassing clouds.3 mph47%30.01 "Hg10 mi
1:35 AM54 °FPassing clouds.6 mph47%30.02 "Hg10 mi
1:15 AM54 °FPassing clouds.5 mph47%30.02 "Hg10 mi
12:55 AM50 °FPassing clouds.5 mph58%30.02 "Hg10 mi
12:35 AM50 °FClear.No wind58%30.02 "Hg10 mi
12:15 AM48 °FClear.No wind62%30.03 "Hg10 mi
11:54 PM
Thu, May 21
52 °FClear.No wind54%30.02 "Hg10 mi
11:35 PM54 °FClear.3 mph51%30.02 "Hg10 mi
11:15 PM54 °FClear.5 mph47%30.02 "Hg10 mi
10:54 PM55 °FClear.5 mph44%30.02 "Hg10 mi
10:35 PM55 °FClear.3 mph44%30.02 "Hg10 mi
10:15 PM55 °FClear.3 mph47%30.01 "Hg10 mi
9:55 PM55 °FClear.3 mph47%30.01 "Hg10 mi
9:35 PM55 °FSunny.3 mph47%30.00 "Hg10 mi
9:15 PM57 °FSunny.3 mph44%30.00 "Hg10 mi
8:55 PM59 °FSunny.6 mph39%30.00 "Hg10 mi
8:35 PM61 °FSunny.7 mph36%29.99 "Hg10 mi
8:15 PM61 °FSunny.6 mph34%29.99 "Hg10 mi
7:54 PM63 °FSunny.8 mph34%29.98 "Hg10 mi
7:35 PM63 °FSunny.10 mph32%29.98 "Hg10 mi
7:15 PM63 °FScattered clouds.13 mph34%29.99 "Hg10 mi
6:54 PM63 °FSunny.8 mph37%29.98 "Hg10 mi
6:35 PM63 °FSunny.9 mph37%29.98 "Hg10 mi
6:15 PM63 °FSunny.8 mph37%29.98 "Hg10 mi
5:54 PM63 °FScattered clouds.8 mph37%29.98 "Hg10 mi
5:35 PM63 °FScattered clouds.8 mph37%29.99 "Hg10 mi
5:15 PM63 °FPartly sunny.9 mph37%29.99 "Hg10 mi
4:55 PM63 °FBroken clouds.9 mph37%29.99 "Hg10 mi
4:35 PM63 °FScattered clouds.9 mph37%29.99 "Hg10 mi
4:15 PM63 °FScattered clouds.8 mph37%29.99 "Hg10 mi
Weather by CustomWeather, © 2015

See weather overviewHow to use our weather pages